Starlink 30110

operational
NORAD ID: 57474 Int'l Des: 2023-107 Owner: SPXS Country: US Constellation: starlink
LEOCIRCULAR

About Starlink 30110

Description loading...

Live Position

Loading 3D Globe...

Upcoming Passes

Altitude History

Altitude vs Time

uPlot chart will show altitude changes over time

Two-Line Element Set

1 57474U 23107T 25305.66668981 .00171638 00000-0 38838-2 0 9993
2 57474 42.9941 266.1605 0026918 137.3900 285.3872 15.41409380 5930
Epoch: Nov 1, 2025 • Age: 9 hours

Current Status

Altitude 441.8 km
Velocity 7.65 km/s
Sub-Earth Point 32.70°N, 113.73°W
Launch Date Jul 28, 2023
Age 2.2 years
Type internet

Technical Details

Classification Payload
Mass 730.00 kg
Dry Mass 700.00 kg
Total Mass 730.00 kg
Length 0.30 m
Diameter 4.10 m
Span 29.00 m
Shape Box + pan
Manufacturer SPXS
Bus Type Starlink V2M
Phase Status In Orbit
Owner/State SPXS/US

Large Constellations

Loading constellations...